{"data":{"norad_id":68878,"epoch":"2026-05-25T04:00:03.998880Z","epoch_age_seconds":57678,"freshness":"FRESH","line1":"1 68878U 26095Q   26145.16671295 -.00025943  00000+0 -15305-2 0  9994","line2":"2 68878  51.8894 355.3042 0010165 232.4575 156.3511 15.10765550  4244","mean_motion":15.1076555,"eccentricity":0.0010165,"inclination_deg":51.8894,"raan_deg":355.3042,"arg_perigee_deg":232.4575,"mean_anomaly_deg":156.3511,"bstar":-0.0015305,"rev_number":424,"period_min":95.315914504405,"perigee_km":526.83795609954,"apogee_km":540.89005414295,"semimajor_km":6912.0010051212,"source":"CELESTRAK","updated_at":"2026-05-25T13:38:08.648400Z"}}